Location: Glums�
(55.3568°N, 11.6856°E)
Time: 11:31:40
(UTC+00:00)

ATLAS CENTAUR R/B - Pass Details

Date: 07 June 2020
Orbit: 473 x 674 km, 64.7° (Epoch: 25 June)

Event Time Altitude Azimuth Distance (km) Brightness Sun altitude
Rises 01:28:46 0° 298° (WNW) 2,715 4.8 -6.6°
Reaches altitude 10° 01:31:26 10° 314° (NW) 1,782 4.1 -6.4°
Maximum altitude 01:34:32 21° 6° (N) 1,184 4.0 -6.2°
Drops below altitude 10° 01:37:31 10° 57° (ENE) 1,705 5.1 -5.9°
Sets 01:40:00 0° 74° (ENE) 2,563 5.6 -5.8°
